STARLINK-11437, 62884

Orbit data source: Space-Track

STARLINK-11437, 62884 is a payload satellite owned by SpaceX/Seattle (US) in LEO that was launched on Tue, 04 Feb 2025 UTC via an FALCON 9 launch vehicle from the Air Force Eastern Test Range (AFETR). Payload-class satellites include a variety of spacecraft equipped with specific instruments for various scientific and technological missions. These include communications satellites like Starlink; space stations such as the ISS; scientific satellites like the Hubble; Earth observation satellites from companies like Planet Labs, Umbra, and HawkEye 360; GPS; miniature CubeSats for education and research; and military/defense satellites.

Loading next visibility...
Identifier
62884, 2025-024F
Orbit
LEO
Last TLE update
9 hours ago
Origin
Manufacturer
SpaceX/Seattle
Mission
Operational Commercial Communications
Bus & Motor
STARLINK V2M, Unknown motor
Mass
730 kg wet, ~700 kg dry
Launch date (UTC)
2025-02-04 (5 months ago)
Launch vehicle
FALCON 9
Launch site
Air Force Eastern Test Range (AFETR)
Object type
Payload
Rocket body
Debris
Shape & HBR
Box + 2 Pan, 29 m
Radar Cross Section
36.964 m², Large (>1 m²)

Expand to show TLE details & history

TLE from 9 hours ago
0 STARLINK-11437
1 62884U 25024F   25183.48142801  .00127738  00000-0  98274-3 0  9999
2 62884  43.0004 249.7789 0001973 284.9803  75.0846 15.70864119 24111
Epoch: 2025-07-02T11:33Z
TLE epoch observation values (Epoch: 2025-07-02T11:33:15.38Z)
Latitude
-0.00001°
Longitude
155.7029°
Altitude
355.856 km
Speed
7.698 km/s
True Right ascension
16h 39m 06s
True Declination
0° 00' 00"
Sunlit
Object was in full shadow at epoch
Visualization orbit readout
Latitude
-24.78337°
Longitude
123.94774°
Altitude
361.126 km
Speed
7.694 km/s
Apparent Right ascension
17h 00m 50s
Apparent Declination
-40° 23' 06"
Sunlit
Object is in full shadow
Visualization observer readout
Local Sidereal Time
08:17:02
Azimuth
107.067° ESE
Elevation
-52.999°
Doppler factor
1
Orbital elements
Apogee altitude
359.737 km
Perigee altitude
357.079 km
Semi-major axis
6,736.545 km
Eccentricity
0.0002
Inclination
43.0004°
RAAN
249.7789°
Arg. of periapsis
284.9803°
True anomaly
Unknown
Mean anomaly
75.0846°
Eccentric anomaly
Unknown
Mean motion
3.92543 °/min
Orbital period
91.71 mins
BSTAR
0.00098274
Loading maneuver chart data...
Loading SW <> Apogee altitude chart data...
Loading historical data...
Loading historical data...
Loading historical data...
Loading historical data...
Loading historical data...
Loading historical data...
Loading historical data...

STARLINK-11437 Visibility forecast

Observer location: undefined°, undefined°

Span
Click to sort rows by Start time (UTC) header in descending order
Start Az.
Max El. time (UTC)
Max El. Az.
Max El.
End time (UTC)
End Az.
4 mins2025-07-03 07:35:59.623Z207.642° SW2025-07-03 07:37:59.623Z156.577° SSE25.253°2025-07-03 07:39:59.623Z97.085° ESE
4 mins2025-07-03 09:12:59.623Z275.584° WNW2025-07-03 09:13:59.623Z330.656° NNW41.708°2025-07-03 09:16:59.623Z69.171° E
4 mins2025-07-03 10:48:59.623Z303.093° NW2025-07-03 10:49:59.623Z336.158° NNW33.051°2025-07-03 10:52:59.623Z76.982° E
4 mins2025-07-03 12:24:59.623Z282.982° WNW2025-07-03 12:26:59.623Z141.14° SSE41.359°2025-07-03 12:28:59.623Z116.381° SE
|